{"data":{"norad_id":53732,"intl_designator":"2022-107AJ","name":"STARLINK-4661","alt_names":[],"object_type":"PAYLOAD","status":"ACTIVE","operator":null,"country":"US","launch_date":"2022-09-05","launch_site_code":"AFETR","launch_vehicle":null,"mission":null,"orbit_class":"UNKNOWN","rcs_meters":null,"size_class":null,"mass_kg":null,"dimensions":null,"purposes":["comms"],"wikipedia_slug":null,"has_3d_model":false,"image_url":null,"decayed_at":null,"tle_current":{"epoch":"2026-09-20T22:08:05.273664Z","epoch_age_seconds":45212,"freshness":"FRESH","line1":"1 53732U 22107AJ  26263.92228326  .00000334  00000+0  21034-4 0  9998","line2":"2 53732  53.1606  81.8369 0001164  90.2515 269.8621 15.34391053224244","mean_motion":15.34391053,"eccentricity":0.0001164,"inclination_deg":53.1606,"raan_deg":81.8369,"arg_perigee_deg":90.2515,"mean_anomaly_deg":269.8621,"bstar":2.1034e-5,"rev_number":22424,"period_min":93.848305305518,"perigee_km":461.93355580649,"apogee_km":463.52610960514,"semimajor_km":6840.8668327058,"source":"CELESTRAK","updated_at":"2026-09-21T09:00:32.987967Z"}}}